Weather reports worldwide

Advertisment
Isola Di Salina, Italy (16415): temperature & dewpoint: 08.12.2017 15:00:00 - 14.12.2017 15:00:00 (CET)Isola Di Salina, Italy (16415): wind speed: 08.12.2017 15:00:00 - 14.12.2017 15:00:00 (CET)Isola Di Salina, Italy (16415): wind direction: 08.12.2017 15:00:00 - 14.12.2017 15:00:00 (CET)Isola Di Salina, Italy (16415): reduced air pressure: 08.12.2017 15:00:00 - 14.12.2017 15:00:00 (CET)Isola Di Salina, Italy (16415): precipitation: 08.12.2017 15:00:00 - 14.12.2017 15:00:00 (CET)
Date & Time tt [°C] td [°C] ff [km/h] ff [kn] dd ppp [hPa] rr [mm]
14.12.2017 15:00:00 12,8 7,2 13 7 W 1019,8 -
14.12.2017 14:00:00 12,8 7,2 13 7 NNW 1020,3 -
14.12.2017 13:00:00 12,9 7,3 8 4 SW 1020,8 0,0
14.12.2017 12:00:00 12,8 6,3 11 6 WNW 1021,2 -
14.12.2017 11:00:00 12,8 6,3 13 7 WNW 1021,6 -
14.12.2017 10:00:00 12,7 5,8 15 8 WNW 1022,0 -
14.12.2017 09:00:00 12,1 5,0 15 8 W 1021,8 -
14.12.2017 08:00:00 11,4 3,8 13 7 WSW 1021,7 -
14.12.2017 07:00:00 11,0 3,5 15 8 WSW 1022,0 -
14.12.2017 06:00:00 11,3 4,7 13 7 W 1021,5 -
14.12.2017 05:00:00 11,5 5,1 13 7 W 1021,3 -
14.12.2017 04:00:00 11,9 6,5 21 11 W 1021,6 -
14.12.2017 03:00:00 12,3 8,9 18 10 WNW 1021,5 -
14.12.2017 02:00:00 12,1 9,8 16 9 WNW 1021,2 -
14.12.2017 01:00:00 11,5 9,9 13 7 WNW 1021,4 -
14.12.2017 00:00:00 11,6 10,2 16 9 W 1021,8 -
13.12.2017 23:00:00 12,5 11,1 15 8 WNW 1022,1 -
13.12.2017 22:00:00 12,9 11,6 18 10 NW 1022,0 -
13.12.2017 21:00:00 12,6 11,2 18 10 WNW 1022,0 -
13.12.2017 20:00:00 12,7 11,3 18 10 W 1021,8 -
13.12.2017 19:00:00 13,0 10,1 24 13 W 1021,7 0,0
13.12.2017 18:00:00 13,8 11,3 21 11 WNW 1021,0 -
13.12.2017 17:00:00 13,9 10,5 15 8 WNW 1020,9 -
13.12.2017 16:00:00 14,2 12,6 22 12 NW 1021,0 -
13.12.2017 15:00:00 14,8 13,3 18 10 WNW 1020,7 -
13.12.2017 14:00:00 16,5 11,8 16 9 WNW 1020,7 -
13.12.2017 13:00:00 16,2 10,5 16 9 NW 1020,9 0,0
13.12.2017 12:00:00 17,4 9,2 15 8 W 1021,6 -
13.12.2017 11:00:00 15,8 10,1 9 5 WNW 1021,9 -
13.12.2017 10:00:00 16,2 9,1 4 2 NW 1021,8 -
13.12.2017 09:00:00 17,2 12,3 5 3 S 1021,2 -
13.12.2017 08:00:00 15,2 7,7 8 4 S 1021,0 -
13.12.2017 07:00:00 14,1 7,1 8 4 SSW 1020,9 0,0
13.12.2017 06:00:00 13,6 7,5 2 1 NW 1020,6 -
13.12.2017 05:00:00 13,9 8,0 5 3 NNW 1020,0 -
13.12.2017 04:00:00 13,6 12,0 11 6 NW 1020,1 -
13.12.2017 03:00:00 13,3 7,7 11 6 NW 1019,8 -
13.12.2017 02:00:00 13,7 4,7 0 0 N 1019,7 -
13.12.2017 01:00:00 13,6 8,2 0 0 N 1019,6 0,0
13.12.2017 00:00:00 13,8 8,4 0 0 N 1019,8 -
12.12.2017 23:00:00 14,9 6,4 2 1 S 1019,7 -
12.12.2017 22:00:00 15,1 6,0 5 3 S 1019,5 -
12.12.2017 21:00:00 14,3 6,8 5 3 SSW 1019,5 -
12.12.2017 20:00:00 14,7 7,4 0 0 N 1019,4 -
12.12.2017 19:00:00 14,8 6,3 5 3 SSW 1018,9 0,0
12.12.2017 18:00:00 14,7 7,2 8 4 S 1018,4 -
12.12.2017 17:00:00 15,0 8,6 9 5 N 1017,8 -
12.12.2017 16:00:00 15,7 7,4 9 5 S 1018,0 -
12.12.2017 15:00:00 16,8 8,7 9 5 S 1017,9 -
12.12.2017 14:00:00 17,7 9,0 2 1 ENE 1017,9 -
12.12.2017 13:00:00 17,5 7,5 0 0 N 1017,6 0,0
12.12.2017 12:00:00 19,1 13,4 5 3 S 1017,8 -
12.12.2017 11:00:00 18,2 11,9 8 4 SSE 1018,1 -
12.12.2017 10:00:00 17,6 11,8 8 4 S 1017,9 -
12.12.2017 09:00:00 15,6 13,9 0 0 N 1017,6 -
12.12.2017 08:00:00 13,2 11,2 0 0 N 1017,3 -
12.12.2017 07:00:00 13,6 11,5 0 0 N 1016,7 0,0
12.12.2017 06:00:00 13,6 11,5 9 5 WNW 1015,8 -
12.12.2017 05:00:00 13,6 9,4 11 6 NW 1015,6 -
12.12.2017 04:00:00 14,1 7,8 11 6 WNW 1014,8 -
12.12.2017 03:00:00 13,4 6,2 8 4 WNW 1014,7 -
12.12.2017 02:00:00 13,0 4,9 2 1 NE 1014,1 -
12.12.2017 01:00:00 12,7 4,3 8 4 WNW 1013,7 0,0
12.12.2017 00:00:00 13,1 5,2 4 2 W 1013,8 -
11.12.2017 23:00:00 13,7 6,0 0 0 N 1013,7 -
11.12.2017 22:00:00 14,0 6,8 5 3 SW 1013,7 -
11.12.2017 21:00:00 13,4 8,0 0 0 N 1013,6 -
11.12.2017 20:00:00 13,9 7,4 4 2 W 1013,7 -
11.12.2017 19:00:00 14,3 8,6 4 2 ENE 1014,0 0,0
11.12.2017 18:00:00 13,5 6,5 5 3 WNW 1013,6 -
11.12.2017 17:00:00 14,0 7,2 4 2 NW 1013,4 -
11.12.2017 16:00:00 15,2 9,3 0 0 N 1013,0 -
11.12.2017 15:00:00 16,2 9,8 2 1 SE 1012,9 -
11.12.2017 14:00:00 16,5 11,4 16 9 SE 1013,0 -
11.12.2017 13:00:00 16,2 11,3 21 11 SE 1014,0 0,0
11.12.2017 12:00:00 16,5 11,2 13 7 SE 1015,1 -
11.12.2017 11:00:00 15,9 10,4 15 8 WSW 1015,8 -
11.12.2017 10:00:00 15,1 10,0 15 8 SE 1016,2 -
11.12.2017 09:00:00 13,7 9,1 16 9 SE 1016,2 -
11.12.2017 08:00:00 12,0 6,8 15 8 SSE 1016,0 -
11.12.2017 07:00:00 11,1 5,1 15 8 S 1016,3 0,0
11.12.2017 06:00:00 10,7 4,5 16 9 S 1016,3 -
11.12.2017 05:00:00 9,9 4,8 13 7 S 1016,9 -
11.12.2017 04:00:00 9,5 4,2 5 3 SSE 1017,9 -
11.12.2017 03:00:00 9,2 3,5 2 1 S 1018,2 -
11.12.2017 02:00:00 9,0 3,8 0 0 N 1018,4 -
11.12.2017 01:00:00 9,4 4,3 8 4 WSW 1018,6 0,0
11.12.2017 00:00:00 9,1 3,2 8 4 SSW 1018,6 -
10.12.2017 23:00:00 9,6 4,9 9 5 S 1018,8 -
10.12.2017 22:00:00 9,6 5,1 9 5 SSW 1019,4 -
10.12.2017 21:00:00 9,3 4,0 5 3 SW 1020,2 -
10.12.2017 20:00:00 9,0 3,1 2 1 SE 1020,1 -
10.12.2017 19:00:00 9,7 3,6 8 4 WSW 1020,0 0,0
10.12.2017 18:00:00 9,5 3,4 9 5 WSW 1020,0 -
10.12.2017 17:00:00 9,3 4,5 11 6 WSW 1020,0 -
10.12.2017 16:00:00 9,7 5,6 8 4 WSW 1019,7 -
10.12.2017 15:00:00 9,7 6,0 5 3 WSW 1020,1 -
10.12.2017 14:00:00 10,0 5,3 5 3 NW 1020,9 -
10.12.2017 13:00:00 11,0 3,9 4 2 WSW 1021,1 0,0
10.12.2017 12:00:00 11,6 3,5 8 4 W 1021,3 -
10.12.2017 11:00:00 11,5 3,7 13 7 NW 1021,4 -
10.12.2017 10:00:00 11,1 3,3 5 3 WNW 1021,1 -
10.12.2017 09:00:00 10,9 3,8 16 9 NNW 1020,3 -
10.12.2017 08:00:00 10,1 1,1 9 5 WNW 1019,9 -
10.12.2017 07:00:00 10,4 1,7 13 7 NW 1019,4 -
10.12.2017 06:00:00 10,4 1,1 18 10 WNW 1019,3 -
10.12.2017 05:00:00 10,3 1,0 24 13 WNW 1018,7 -
10.12.2017 04:00:00 9,4 1,7 13 7 WNW 1018,8 -
10.12.2017 03:00:00 9,5 3,6 26 14 NNW 1018,9 -
10.12.2017 02:00:00 9,9 2,9 24 13 WNW 1018,3 -
10.12.2017 01:00:00 9,9 3,6 35 19 WNW 1017,7 -
10.12.2017 00:00:00 9,9 4,8 35 19 NNW 1017,6 -
09.12.2017 23:00:00 10,6 4,0 37 20 NW 1017,1 -
09.12.2017 22:00:00 11,0 2,7 41 22 WNW 1016,8 -
09.12.2017 21:00:00 9,7 6,9 28 15 WNW 1016,2 -
09.12.2017 20:00:00 10,7 8,3 35 19 NW 1015,3 -
09.12.2017 19:00:00 10,1 6,9 31 17 WNW 1015,2 -
09.12.2017 18:00:00 11,9 6,8 22 12 WNW 1013,8 -
09.12.2017 17:00:00 12,3 6,5 26 14 WNW 1014,0 -
09.12.2017 16:00:00 12,9 5,5 24 13 W 1013,8 -
09.12.2017 15:00:00 12,6 7,2 21 11 W 1013,8 -
09.12.2017 14:00:00 11,9 10,3 28 15 W 1014,0 -
09.12.2017 13:00:00 10,8 7,4 16 9 WNW 1014,3 -
09.12.2017 12:00:00 13,5 7,7 18 10 W 1014,2 -
09.12.2017 11:00:00 13,6 6,6 28 15 W 1014,5 -
09.12.2017 10:00:00 14,4 7,1 13 7 WSW 1014,8 -
09.12.2017 09:00:00 14,4 8,3 11 6 E 1014,5 -
09.12.2017 08:00:00 13,5 7,4 8 4 SE 1015,1 -
09.12.2017 07:00:00 13,1 7,3 15 8 W 1015,5 0,0
09.12.2017 06:00:00 12,8 7,0 11 6 WSW 1016,5 -
09.12.2017 05:00:00 12,9 7,3 15 8 NE 1016,9 -
09.12.2017 04:00:00 12,7 6,9 18 10 E 1017,8 -
09.12.2017 03:00:00 12,8 6,8 15 8 W 1018,6 -
09.12.2017 02:00:00 12,5 6,9 5 3 SE 1019,4 -
09.12.2017 01:00:00 12,3 7,3 8 4 NNW 1020,0 0,0
09.12.2017 00:00:00 12,0 7,5 8 4 E 1021,0 -
08.12.2017 23:00:00 11,5 7,6 5 3 NNE 1021,7 -
08.12.2017 22:00:00 11,0 6,7 8 4 WNW 1022,4 -
08.12.2017 21:00:00 10,6 6,1 5 3 SW 1023,0 -
08.12.2017 20:00:00 10,4 5,3 5 3 SSW 1023,3 -
08.12.2017 19:00:00 10,8 5,5 8 4 W 1023,6 0,0
08.12.2017 18:00:00 10,9 4,1 9 5 W 1023,7 -
08.12.2017 17:00:00 11,1 1,5 8 4 W 1024,0 -
08.12.2017 16:00:00 11,4 6,3 9 5 WNW 1024,2 -
08.12.2017 15:00:00 13,0 5,8 8 4 WNW 1024,3 -

tt = temperature
td = dewpoint
ff = wind speed
dd = wind direction
ppp = reduced air pressure
rr = precipitation

Next stations